Location: Franzen
(48.6167°N, 15.3833°E)
Time: 09:38:10
(UTC+00:00)

ARIANE 5 R/B - Pass Details

Date: 07 August 2021
Orbit: 620 x 656 km, 98.1° (Epoch: 21 September)

Event Time Altitude Azimuth Distance (km) Brightness Sun altitude
Exits shadow 19:03:13 - 111° (ESE) 2,288 4.8 -6.1°
Reaches altitude 10° 19:04:03 10° 104° (ESE) 2,034 4.6 -6.2°
Maximum altitude 19:07:05 19° 61° (ENE) 1,544 4.4 -6.6°
Drops below altitude 10° 19:10:07 10° 17° (NNE) 2,028 5.4 -7.0°
Sets 19:12:51 0° 359° (N) 2,935 6.6 -7.4°
